GW2523 Weather Reports


time (UTC)temp
C
wind
direction
speed
KPH
gust
KPH
rain 1hr
cm
rain 24hr
cm
rain mn
cm
humidity
%
barometer
mb
20260902060010 13 257 9.7 17.7 0.00 0.61 0.00 62 1017.2
20260902054517 12 245 8.0 16.1 0.00 0.61 0.00 60 1017.2
20260902053004 12 273 9.7 16.1 0.00 0.61 0.00 59 1017.2
20260902051503 12 241 8.0 16.1 0.00 0.61 0.00 61 1017.1
20260902050058 12 267 6.4 12.9 0.00 0.61 0.00 63 1016.9
20260902044555 12 262 6.4 12.9 0.00 0.61 0.00 65 1016.9
20260902043054 12 271 4.8 11.3 0.00 0.61 0.00 66 1016.7
20260902041603 12 250 6.4 11.3 0.00 0.61 0.00 67 1016.7
20260902040045 12 248 6.4 11.3 0.00 0.61 0.00 68 1016.5
20260902034544 12 259 4.8 9.7 0.00 0.61 0.00 70 1016.4
20260902033049 12 255 4.8 8.0 0.00 0.61 0.00 71 1016.2
20260902031539 12 244 4.8 11.3 0.00 0.61 0.00 73 1016.1
20260902030045 12 251 4.8 11.3 0.00 0.61 0.00 74 1016.2
20260902024538 12 257 3.2 6.4 0.00 0.61 0.00 75 1016.4
20260902023043 12 242 4.8 11.3 0.00 0.61 0.00 76 1016.3
20260902021542 12 271 6.4 11.3 0.00 0.61 0.00 77 1016.4
20260902020035 12 270 4.8 11.3 0.00 0.61 0.00 78 1016.4
20260902014529 12 254 6.4 12.9 0.00 0.61 0.00 80 1016.3
20260902013026 12 266 4.8 9.7 0.00 0.61 0.00 80 1016.2
20260902011525 13 263 4.8 11.3 0.00 0.61 0.00 80 1016.1
20260902010023 13 255 4.8 11.3 0.00 0.61 0.00 79 1016.2
20260902004522 13 273 3.2 9.7 0.00 0.61 0.00 79 1016.1
20260902003022 13 258 3.2 6.4 0.00 0.61 0.00 80 1016.1
20260902001519 13 264 3.2 9.7 0.00 0.61 0.00 81 1016.1
20260902000017 13 269 4.8 12.9 0.00 0.61 0.00 82 1016.1
20260901234515 13 256 8.0 14.5 0.00 0.94 0.00 82 1016.1
20260901233015 13 257 4.8 14.5 0.00 0.94 0.00 82 1016.1
20260901231511 13 262 6.4 16.1 0.00 0.94 0.00 82 1016.0
20260901230012 13 240 11.3 20.9 0.00 0.94 0.00 83 1016.1
20260901224507 14 263 8.0 17.7 0.00 0.99 0.00 82 1016.1
20260901223006 14 271 6.4 17.7 0.00 0.99 0.00 82 1016.1
20260901221607 14 273 8.0 19.3 0.00 0.99 0.00 82 1016.0
20260901220125 15 236 9.7 22.5 0.00 0.99 0.00 82 1015.9
20260901214555 15 269 8.0 19.3 0.00 0.99 0.99 82 1015.8
20260901213114 15 302 9.7 19.3 0.00 0.99 0.99 81 1015.7
20260901211555 15 277 12.9 22.5 0.00 0.99 0.99 81 1015.8
20260901210101 15 278 8.0 16.1 0.00 0.99 0.99 80 1015.7
20260901204555 15 264 9.7 17.7 0.00 0.99 0.99 80 1015.6
20260901203101 15 228 9.7 17.7 0.00 0.99 0.99 80 1015.6
20260901201549 15 264 8.0 16.1 0.00 0.99 0.99 80 1015.5
20260901200049 15 256 12.9 20.9 0.00 0.99 0.99 80 1015.5
20260901194551 15 257 6.4 16.1 0.00 0.99 0.99 78 1015.4
20260901193052 15 254 6.4 16.1 0.00 0.99 0.99 77 1015.4
20260901191544 15 301 8.0 17.7 0.00 0.99 0.99 79 1015.3
20260901190044 15 240 6.4 17.7 0.00 0.99 0.99 79 1015.2
20260901184542 15 279 8.0 14.5 0.00 1.27 0.99 79 1015.1
20260901183047 15 290 9.7 16.1 0.00 1.27 0.99 78 1015.0
20260901181538 15 268 8.0 14.5 0.00 1.27 0.99 74 1014.8
20260901180038 15 284 4.8 11.3 0.00 1.27 0.99 72 1014.6
20260901174537 15 281 4.8 11.3 0.03 1.27 0.99 70 1014.5
20260901173050 15 276 4.8 9.7 0.03 1.27 0.99 68 1014.4
20260901171538 15 269 8.0 14.5 0.53 1.27 0.99 69 1014.6
20260901170034 15 267 4.8 16.1 0.53 1.27 0.99 71 1014.6
20260901164533 15 287 6.4 14.5 0.53 1.24 0.97 76 1014.6
20260901163132 15 275 8.0 32.2 0.53 1.24 0.97 82 1014.6
20260901161535 17 311 6.4 17.7 0.03 0.71 0.43 80 1014.3
20260901160031 20 311 17.7 30.6 0.03 0.71 0.43 70 1014.2
20260901154526 21 246 6.4 20.9 0.00 0.71 0.43 65 1013.5
20260901153031 21 256 12.9 32.2 0.00 0.71 0.43 64 1013.6
20260901151522 21 255 8.0 32.2 0.00 0.71 0.43 64 1013.5
20260901150018 21 241 20.9 32.2 0.00 0.71 0.43 64 1013.5
20260901144519 21 259 14.5 38.6 0.00 0.71 0.43 63 1013.5
20260901143015 21 249 17.7 41.8 0.00 0.71 0.43 62 1013.3
20260901141544 21 244 20.9 38.6 0.00 0.71 0.43 60 1013.2
20260901140015 21 258 16.1 35.4 0.00 0.71 0.43 62 1013.2
20260901134512 21 302 11.3 22.5 0.00 0.71 0.43 65 1013.3
20260901133010 20 294 12.9 32.2 0.00 0.71 0.43 66 1013.3
20260901131514 21 254 16.1 45.1 0.00 0.71 0.43 66 1013.2
20260901130023 21 244 19.3 33.8 0.00 0.71 0.43 66 1013.1
20260901124507 21 247 22.5 46.7 0.00 0.71 0.43 67 1013.1
20260901123008 20 252 20.9 37.0 0.00 0.71 0.43 74 1013.1
20260901121501 18 240 11.3 24.1 0.00 0.71 0.43 82 1013.4
20260901120103 17 278 12.9 27.4 0.00 0.71 0.43 83 1013.5
20260901114559 17 221 9.7 22.5 0.00 0.71 0.43 83 1013.5
20260901113059 17 269 16.1 46.7 0.00 0.71 0.43 82 1013.6
20260901111556 18 234 14.5 41.8 0.00 0.71 0.43 74 1013.4
20260901110058 19 214 17.7 29.0 0.00 0.71 0.43 74 1013.1
20260901104554 19 259 22.5 35.4 0.00 0.71 0.43 76 1013.1
20260901103047 18 248 8.0 24.1 0.00 0.71 0.43 77 1013.0
20260901101547 18 266 14.5 29.0 0.00 0.71 0.43 79 1013.0
20260901100047 18 250 16.1 27.4 0.00 0.71 0.43 77 1012.8
20260901094549 18 234 14.5 32.2 0.00 0.71 0.43 79 1012.8
20260901093041 18 236 12.9 27.4 0.00 0.71 0.43 81 1012.7
20260901091536 17 254 16.1 27.4 0.00 0.71 0.43 83 1012.7
20260901090034 17 260 19.3 35.4 0.00 0.71 0.43 83 1012.6
20260901084532 17 272 16.1 27.4 0.00 0.71 0.43 84 1012.6
20260901083030 17 269 20.9 38.6 0.00 0.71 0.43 83 1012.5
20260901081525 16 259 16.1 27.4 0.00 0.71 0.43 79 1012.3
20260901080022 16 272 12.9 22.5 0.03 0.71 0.43 72 1012.2
20260901074520 15 250 11.3 17.7 0.05 0.71 0.43 66 1012.1
20260901073018 15 242 11.3 17.7 0.05 0.71 0.43 67 1012.0
20260901071522 15 250 11.3 20.9 0.05 0.71 0.43 71 1011.8
20260901070021 15 238 14.5 27.4 0.05 0.69 0.41 77 1011.7
20260901064515 15 242 9.7 22.5 0.00 0.64 0.36 74 1011.6
20260901063009 15 259 14.5 20.9 0.00 0.64 0.36 71 1011.4
20260901061508 14 265 11.3 17.7 0.00 0.64 0.36 69 1011.3